[[{"header":{"parameterUnit":"m.s-1","parameterCategory":1,"la1":30.2991,"la2":30.254,"lo1":-89.0895,"lo2":-89.0444,"dy":0.0017,"dx":0.0017,"nx":28,"ny":28,"refTime":"2025-07-27T09:00:00:Z","depth":0,"parameterNumber":2,"parameterNumberName":"U-component_of_WINDS"},"data":[0,0,0,0,0,0,0,0,0,0,0,0,0,0,0,0,0,0,0,0,0,0,0,0,0,0,0,0,0,0,0,0,0,0,0,0,0,0,0,0,0,0,0,0,0,0,0,0,0,0,0,0,0,0,0,0,0,0,2.7538,2.7539,0,2.7586,2.7587,2.7588,2.7492,2.7489,2.7486,2.7483,2.7533,2.7538,2.7542,0,0,0,0,0,0,0,0,0,0,0,0,0,2.7366,2.7369,2.7538,2.7539,2.7539,2.7586,2.7587,2.7588,2.7493,2.7489,2.7485,2.7481,2.7532,2.7537,2.7542,0,0,0,0,0,0,0,0,0,0,0,0,0,2.743,2.7371,2.7538,2.7498,2.7494,2.7586,2.7587,2.7588,2.7493,2.7489,2.7484,2.748,2.753,2.7537,2.7543,2.7677,0,0,2.7562,2.7565,0,0,0,0,0,0,0,0,2.7427,2.7437,2.7503,2.7501,2.7497,2.7528,2.7545,2.7618,2.7495,2.7494,2.7483,2.7477,2.7536,2.7541,2.7561,2.7679,2.7681,2.7563,2.7567,2.757,2.7571,0,0,0,0,0,0,0,2.7422,2.7434,2.7557,2.7504,2.7501,2.7478,2.7482,2.7558,2.7541,2.7494,2.7487,2.7494,2.7533,2.7555,2.7561,2.7682,2.7563,2.7569,2.7573,2.7575,2.7915,2.7919,0,0,0,0,0,0,2.7423,2.7431,2.7556,2.7559,2.745,2.7485,2.7489,2.7523,2.7539,2.7537,2.7498,2.7489,2.7546,2.7554,2.7563,2.7722,2.757,2.7576,2.7579,2.7909,2.7916,2.7921,0,0,0,0,0,0,2.7419,2.7435,2.7554,2.7493,2.7506,2.7493,2.7532,2.7527,2.7548,2.7543,2.7539,2.7523,2.7543,2.7554,2.7649,2.7722,2.7579,2.7584,2.7903,2.7911,2.7918,2.804,0,0,0,0,0,0,2.7415,2.7434,2.7484,2.7495,2.751,2.764,2.7536,2.7531,2.7559,2.7548,2.7565,2.7564,2.754,2.764,2.7656,2.7728,2.7589,2.7897,2.7907,2.7916,2.803,2.8051,2.807,0,0,0,0,0,2.7409,2.7516,2.7487,2.7503,2.7572,2.7644,2.7653,2.7623,2.7565,2.7616,2.7613,2.7563,2.7712,2.7651,2.7668,2.7743,2.7892,2.7904,2.7915,2.8021,2.8047,2.8069,0,0,0,0,0,0,2.7514,2.7517,2.7485,2.7598,2.7622,2.7628,2.769,2.7651,2.7691,2.768,2.7641,2.7646,2.775,2.7756,2.7688,2.7874,2.7792,2.7808,2.7867,2.7892,2.7911,2.7908,2.7595,0,0,0,0,0,2.7551,2.7608,2.7607,2.7708,2.7721,2.7705,2.7734,2.771,2.7732,2.7742,2.7745,2.777,2.7822,2.7857,2.7904,2.803,2.8033,2.809,2.811,2.8127,2.8141,2.821,2.8236,2.796,2.7959,2.7959,0,0,2.7627,2.7635,2.7674,2.773,2.7745,2.7806,2.7713,2.7781,2.7827,2.7752,2.7843,2.7847,2.7871,2.7983,2.8033,2.7992,2.8218,2.8142,2.8155,2.816,2.8224,2.8251,2.8274,2.7967,2.7966,2.7965,0,0,2.7797,2.7808,2.7894,2.7912,2.7936,2.7924,2.7945,2.7957,2.7957,2.8048,2.7994,2.8047,2.8137,2.8158,2.818,2.836,2.8316,2.8377,2.8481,2.8549,2.8571,2.859,2.8656,2.8679,2.8391,2.8391,2.8391,0,2.7888,2.7978,2.7944,2.8016,2.8043,2.7979,2.8066,2.8085,2.8124,2.8144,2.8097,2.821,2.8222,2.8339,2.8383,2.8403,2.8426,2.8375,2.857,2.8589,2.8606,2.8669,2.8693,2.8398,2.8397,2.8397,2.8396,0,2.809,2.8153,2.822,2.8259,2.8294,2.8374,2.8352,2.8391,2.8364,2.8358,2.8452,2.8464,2.8514,2.854,2.8513,2.8654,2.8628,2.8576,2.8493,2.8641,2.8699,2.8722,2.8409,2.8406,2.8404,2.8402,0,0,2.8327,2.8348,2.8373,2.8391,2.8414,2.8462,2.854,2.8589,2.8624,2.8653,2.8718,2.8797,2.875,2.8776,2.8751,2.881,2.8954,2.8752,2.8752,2.879,2.9111,2.9151,2.9179,2.8925,2.893,2.8933,2.911,0,2.8496,2.863,2.8602,2.8734,2.8793,2.8733,2.8801,2.8823,2.8819,2.8869,2.8865,2.8923,2.8856,2.8871,2.8927,2.8925,2.9019,2.8912,2.8987,2.899,2.8983,2.9209,2.925,2.9416,2.9132,2.9136,2.9139,0,2.8712,2.875,2.8888,2.8903,2.8926,2.8988,2.9032,2.908,2.9104,2.9098,2.9127,2.9092,2.917,2.9086,2.9194,2.9122,2.9151,2.9155,2.9161,2.9168,2.9074,2.9223,2.9468,2.9494,2.9174,2.9171,2.9168,0,2.8873,2.8958,2.9052,2.9069,2.9089,2.9134,2.9144,2.9164,2.9196,2.9234,2.9255,2.9302,2.9328,2.9365,2.9344,2.9284,2.9457,2.937,2.9455,2.9456,2.9494,2.9492,2.9749,2.9512,2.9511,2.9511,2.951,0,2.9065,2.9152,2.9125,2.9183,2.9279,2.9247,2.9343,2.9346,2.9365,2.9423,2.9374,2.943,2.9398,2.9452,2.9436,2.9529,2.9541,2.9539,2.9534,2.9544,2.9544,2.9563,2.9551,2.9517,2.9516,2.9515,2.9514,0,2.9261,2.9246,2.9345,2.9356,2.9361,2.9432,2.9441,2.9496,2.9489,2.9564,2.9579,2.9569,2.963,2.9613,2.9678,2.9668,2.9786,2.9766,2.9778,2.9774,2.986,2.9852,3.0138,3.0175,2.9913,2.9915,2.9917,0,2.9386,2.9451,2.947,2.9506,2.952,2.9578,2.961,2.9582,2.9618,2.9652,2.9703,2.9759,2.9803,2.9903,2.9902,2.9953,2.9934,3.0031,2.9941,2.995,2.9937,2.9934,2.9941,3.0049,3.0052,3.0054,3.0056,0,2.9609,2.9599,2.9647,2.9695,2.9735,2.9771,2.9802,2.9834,2.9808,2.9851,2.9913,2.9947,3.0015,3.0072,3.0119,3.013,3.009,3.0085,3.0107,3.0119,3.0124,3.0124,2.9828,3.0078,3.0076,3.0074,3.0073,3.0072,2.9773,2.983,2.9852,2.9909,2.993,2.996,3.0013,3.0013,3.0064,3.0117,3.0098,3.0169,3.0193,3.0252,3.0269,3.0325,3.0288,3.0321,3.0329,3.0338,3.0349,3.0114,3.0334,3.0333,3.0332,3.0332,3.0331,0,2.9995,3.0007,3.0059,3.0105,3.015,3.0108,3.0141,3.0182,3.0246,3.0272,3.0316,3.0388,3.0444,3.0448,3.0501,3.0545,3.0528,3.056,3.0557,3.0561,3.0378,3.0354,3.0573,3.0573,3.0573,3.0573,3.0573,3.0573,3.0116,3.0209,3.0203,3.0307,3.0318,3.0388,3.041,3.0439,3.046,3.0543,3.0589,3.0591,3.0609,3.0663,3.0713,3.0712,3.0735,3.0774,3.0767,3.0597,3.0573,3.055,3.0527,3.0779,3.0779,3.0945,3.0946,3.0947]},{"header":{"parameterUnit":"m.s-1","parameterCategory":1,"la1":30.2991,"la2":30.254,"lo1":-89.0895,"lo2":-89.0444,"dy":0.0017,"dx":0.0017,"nx":28,"ny":28,"refTime":"2025-07-27T09:00:00:Z","depth":0,"parameterNumber":3,"parameterNumberName":"V-component_of_WINDS"},"data":[0,0,0,0,0,0,0,0,0,0,0,0,0,0,0,0,0,0,0,0,0,0,0,0,0,0,0,0,0,0,0,0,0,0,0,0,0,0,0,0,0,0,0,0,0,0,0,0,0,0,0,0,0,0,0,0,0,0,0.6615,0.6616,0,0.6748,0.6749,0.6751,0.6739,0.6737,0.6735,0.6733,0.6876,0.6881,0.6887,0,0,0,0,0,0,0,0,0,0,0,0,0,0.6356,0.6361,0.6615,0.6616,0.6618,0.6748,0.6749,0.6751,0.6739,0.6737,0.6734,0.6732,0.6874,0.6881,0.6887,0,0,0,0,0,0,0,0,0,0,0,0,0,0.6477,0.6362,0.6614,0.6628,0.663,0.6747,0.6749,0.6752,0.674,0.6737,0.6734,0.6731,0.6872,0.688,0.6888,0.7003,0,0,0.6915,0.6918,0,0,0,0,0,0,0,0,0.647,0.6486,0.6624,0.6627,0.663,0.6723,0.671,0.6836,0.6741,0.6698,0.6733,0.6729,0.6828,0.684,0.6872,0.701,0.7016,0.6915,0.692,0.6924,0.6927,0,0,0,0,0,0,0,0.6462,0.6481,0.6668,0.6626,0.663,0.6629,0.6642,0.6734,0.6779,0.6702,0.6701,0.6717,0.6829,0.6864,0.6875,0.7018,0.6915,0.6923,0.6928,0.6931,0.7257,0.726,0,0,0,0,0,0,0.6449,0.6474,0.6663,0.6672,0.654,0.6636,0.6651,0.6697,0.6778,0.6787,0.6719,0.6716,0.685,0.6865,0.688,0.702,0.6924,0.6932,0.6937,0.7253,0.7257,0.7261,0,0,0,0,0,0,0.6444,0.6466,0.6658,0.6573,0.6597,0.6643,0.6695,0.6701,0.6735,0.6791,0.68,0.6746,0.6849,0.6868,0.6972,0.7025,0.6936,0.6944,0.7249,0.7254,0.7259,0.7301,0,0,0,0,0,0,0.6436,0.6464,0.6507,0.6573,0.6601,0.6746,0.6698,0.6706,0.6749,0.6746,0.6818,0.6828,0.6848,0.6959,0.6981,0.7035,0.695,0.7245,0.7251,0.7258,0.7295,0.7307,0.7317,0,0,0,0,0,0.6427,0.6515,0.651,0.6533,0.6656,0.6749,0.6766,0.6785,0.6754,0.6798,0.6834,0.6825,0.7015,0.697,0.6994,0.7052,0.7241,0.7249,0.7257,0.729,0.7305,0.7317,0,0,0,0,0,0,0.6457,0.6524,0.6519,0.663,0.6684,0.6747,0.6804,0.68,0.6865,0.686,0.6883,0.6899,0.7004,0.7038,0.6987,0.7167,0.7124,0.7137,0.7141,0.7156,0.7166,0.7157,0.6958,0,0,0,0,0,0.6476,0.6545,0.66,0.6694,0.672,0.6757,0.6799,0.6809,0.6866,0.689,0.6933,0.6991,0.7063,0.7111,0.7181,0.7299,0.7315,0.7351,0.7361,0.737,0.7382,0.7448,0.7464,0.7287,0.7287,0.7287,0,0,0.6517,0.6562,0.6605,0.6701,0.6743,0.6816,0.6777,0.6855,0.691,0.6902,0.7003,0.7036,0.7102,0.7214,0.7265,0.7246,0.7434,0.738,0.7387,0.7394,0.7457,0.7474,0.7489,0.7292,0.7291,0.729,0,0,0.663,0.667,0.6752,0.6795,0.6859,0.6882,0.6902,0.6966,0.6987,0.7087,0.7083,0.7149,0.7274,0.7321,0.7361,0.7489,0.7484,0.7511,0.7569,0.7633,0.7647,0.766,0.7706,0.7723,0.7522,0.7522,0.7522,0,0.6674,0.678,0.6795,0.6874,0.6917,0.691,0.6995,0.7036,0.7121,0.7151,0.7127,0.7282,0.7326,0.7449,0.748,0.7512,0.7537,0.7504,0.7643,0.7656,0.7668,0.7713,0.7731,0.7525,0.7525,0.7524,0.7524,0,0.6832,0.6906,0.6965,0.7044,0.7093,0.7174,0.7203,0.7251,0.7256,0.7283,0.7386,0.7438,0.7518,0.7547,0.7554,0.7671,0.7657,0.7638,0.7596,0.7688,0.773,0.7748,0.7529,0.7528,0.7527,0.7527,0,0,0.6969,0.7053,0.7075,0.7111,0.718,0.7239,0.7319,0.7395,0.7437,0.7495,0.7565,0.7669,0.7651,0.7697,0.7709,0.7764,0.7863,0.7738,0.774,0.7761,0.7997,0.8012,0.8032,0.7859,0.7862,0.7865,0.7992,0,0.7089,0.723,0.7246,0.7373,0.7442,0.7436,0.7507,0.7558,0.7584,0.7648,0.7678,0.7752,0.7722,0.775,0.7804,0.7839,0.7911,0.783,0.7926,0.793,0.7912,0.8054,0.8071,0.8188,0.8008,0.8011,0.8013,0,0.7249,0.7309,0.7442,0.7501,0.7531,0.7594,0.7665,0.7725,0.7783,0.7798,0.7848,0.7852,0.7937,0.7889,0.8008,0.7953,0.7992,0.8015,0.802,0.8032,0.7979,0.8071,0.8226,0.8244,0.8039,0.8037,0.8035,0,0.7338,0.7452,0.7546,0.7577,0.7648,0.7692,0.7724,0.7778,0.7823,0.7885,0.7915,0.7986,0.8027,0.8083,0.8107,0.8069,0.8224,0.8178,0.8241,0.8241,0.8276,0.8274,0.8441,0.8298,0.8298,0.8298,0.8297,0,0.7472,0.7554,0.7587,0.7645,0.7737,0.7754,0.7845,0.7876,0.7924,0.7989,0.7988,0.805,0.8077,0.8143,0.8162,0.8258,0.8276,0.8292,0.8297,0.8293,0.8292,0.8322,0.8315,0.8302,0.8301,0.83,0.83,0,0.7587,0.7612,0.7715,0.7772,0.7789,0.7854,0.7904,0.7962,0.7986,0.8069,0.8089,0.8129,0.8207,0.8235,0.8331,0.8344,0.8455,0.8452,0.8435,0.8437,0.8499,0.8493,0.8693,0.872,0.8557,0.8559,0.856,0,0.7672,0.7735,0.7798,0.7841,0.7873,0.7942,0.7987,0.8006,0.8053,0.8122,0.8172,0.8248,0.8311,0.8436,0.8474,0.8547,0.8547,0.8612,0.8558,0.8553,0.855,0.8547,0.8554,0.8623,0.8624,0.8626,0.8627,0,0.7821,0.7829,0.7892,0.796,0.8013,0.8068,0.8121,0.8156,0.8183,0.8236,0.8314,0.8363,0.8459,0.8536,0.861,0.8645,0.8642,0.8643,0.8662,0.866,0.8649,0.8657,0.8464,0.8639,0.8638,0.8637,0.8636,0.8636,0.7925,0.798,0.8033,0.8104,0.8145,0.8194,0.8251,0.8281,0.8346,0.8424,0.8431,0.8516,0.8572,0.8671,0.8709,0.8777,0.8759,0.8786,0.8793,0.88,0.8806,0.8635,0.879,0.879,0.879,0.8789,0.8789,0,0.8075,0.8107,0.8172,0.8245,0.8301,0.8289,0.8347,0.8395,0.8469,0.852,0.8581,0.8672,0.8746,0.8789,0.8863,0.8909,0.891,0.8928,0.8927,0.8935,0.8816,0.8793,0.8927,0.8927,0.8927,0.8927,0.8927,0.8927,0.8159,0.8252,0.8267,0.8381,0.8414,0.8496,0.853,0.8576,0.8617,0.8717,0.8777,0.8804,0.8853,0.893,0.8998,0.9009,0.9038,0.9058,0.9068,0.8957,0.8943,0.893,0.8908,0.9064,0.9064,0.9181,0.9182,0.9183]}]]